SCP
0 0 0 0 0 0 0 0 0 0 0 0 0 0 0 0 0 0 0 0 0 0
0 0 0 0 0 0 0 0 0 0 0 0 0 0 0 0 0 0 0 0 0 0
0 0 0 0 0 0 0 0 0 0 0 0 0 0 0 0 0 0 0 0 0 0
0 0 0 0 0 0 0 0 0 0 0 0 0 0 0 0 0 0 0 0 0 0
0 0 0 0 0 0 0 0 0 0 0 0 0 0 0 0 0 0 0 0 0 0
0 0 0 0 0 0 0 0 0 0 0 0 0 0 0 0 0 0 0 0 0 0
0 0 0 0 0 0 0 0 0 0 0 0 0 0 0 0 0 0 0 0 0 0
0 0 0 0 0 0 0 0 0 0 0 0 0 0 0 0 0 0 0 0 0 0
0 0 0 0 0 0 0 0 0 0 0 0 0 0 0 0 0 0 0 0 0 0
0 0 0 0 0 0 0 0 0 0 0 0 0 0 0 0 0 0 0 0 0 0
0 0 0 0 0 0 0 0 0 0 0 0 0 0 0 0 0 0 0 0 0 0
0 0 0 0 0 0 0 0 0 0 0 0 0 0 0 0 0 0 0 0 0 0
0 0 0 0 0 0 0 0 0 0 0 0 0 0 0 0 0 0 0 0 0 0
0 0 0 0 0 0 0 0 0 0 0 0 0 0 0 0 0 0 0 0 0 0
Wind_Speed_500mb
66 66 67 62 63 64 69 71 70 69 84 80 73 68 75 70 69 75 73 64 60 53
66 70 69 68 67 63 62 66 72 74 66 65 73 78 68 67 71 77 75 72 64 59
68 70 65 65 64 63 64 62 67 72 71 69 78 75 74 77 77 74 77 73 66 60
66 66 66 66 66 61 61 60 63 68 72 72 81 84 82 79 78 77 78 73 66 60
60 62 64 65 64 63 63 64 66 68 70 71 83 87 81 82 82 82 79 77 70 64
62 64 63 62 62 63 62 64 68 68 71 73 81 87 82 79 79 81 78 77 72 68
63 64 62 61 61 64 65 69 72 71 70 69 77 84 83 78 78 76 72 70 66 58
68 66 64 63 63 64 68 70 69 72 71 71 77 82 80 82 81 78 75 68 61 55
70 67 68 64 62 63 69 72 71 71 70 72 76 80 81 78 79 77 75 69 64 60
71 72 72 68 64 64 70 72 70 71 72 73 78 85 86 77 75 73 62 67 66 66
73 75 74 71 67 66 69 74 73 71 72 75 81 85 77 74 74 67 65 66 69 63
71 74 77 77 75 71 69 74 76 74 74 77 79 82 74 79 77 75 72 70 70 61
68 73 75 76 76 73 66 69 75 75 72 72 72 75 82 85 83 77 73 76 76 67
63 67 69 71 75 71 66 67 73 72 70 69 69 80 84 85 85 82 78 82 80 71
Wind_Direction_500mb
226 227 235 235 233 232 230 229 231 235 237 221 232 219 233 220 225 223 226 229 226 227
226 229 234 236 236 231 228 229 233 231 225 229 226 234 218 221 224 222 226 226 225 228
227 229 233 235 234 231 228 229 228 226 238 233 228 224 217 219 220 220 223 225 225 225
229 231 234 235 235 230 228 228 226 225 230 231 228 221 216 220 222 218 222 223 222 217
230 231 234 233 233 229 227 227 227 231 229 228 225 223 216 219 220 221 220 218 214 211
229 231 234 232 234 227 226 225 225 227 230 233 230 223 217 221 223 219 217 216 214 209
232 234 234 235 236 229 226 226 228 231 235 234 231 228 220 220 220 218 214 210 205 203
234 233 232 234 234 231 230 231 233 232 231 230 228 223 217 218 217 216 213 208 206 199
243 238 237 237 236 232 231 231 233 232 231 230 225 220 216 218 217 215 213 206 204 197
247 242 240 239 239 237 236 236 236 235 233 230 226 222 219 217 218 214 211 219 208 199
248 245 243 241 241 242 238 238 239 239 235 230 228 227 217 212 211 218 218 224 217 204
249 248 245 242 239 239 240 240 238 239 238 234 229 224 212 209 214 216 218 217 210 208
249 250 247 246 243 240 241 244 243 241 239 238 231 218 209 212 213 213 214 218 211 218
249 249 247 245 244 240 240 241 241 240 239 235 225 218 213 212 216 220 214 218 218 224
Wind_Speed_850mb
66 66 67 62 63 64 69 71 70 69 84 80 73 68 75 70 69 75 73 64 60 53
66 70 69 68 67 63 62 66 72 74 66 65 73 78 68 67 71 77 75 72 64 59
68 70 65 65 64 63 64 62 67 72 71 69 78 75 74 77 77 74 77 73 66 60
66 66 66 66 66 61 61 60 63 68 72 72 81 84 82 79 78 77 78 73 66 60
60 62 64 65 64 63 63 64 66 68 70 71 83 87 81 82 82 82 79 77 70 64
62 64 63 62 62 63 62 64 68 68 71 73 81 87 82 79 79 81 78 77 72 68
63 64 62 61 61 64 65 69 72 71 70 69 77 84 83 78 78 76 72 70 66 58
68 66 64 63 63 64 68 70 69 72 71 71 77 82 80 82 81 78 75 68 61 55
70 67 68 64 62 63 69 72 71 71 70 72 76 80 81 78 79 77 75 69 64 60
71 72 72 68 64 64 70 72 70 71 72 73 78 85 86 77 75 73 62 67 66 66
73 75 74 71 67 66 69 74 73 71 72 75 81 85 77 74 74 67 65 66 69 63
71 74 77 77 75 71 69 74 76 74 74 77 79 82 74 79 77 75 72 70 70 61
68 73 75 76 76 73 66 69 75 75 72 72 72 75 82 85 83 77 73 76 76 67
63 67 69 71 75 71 66 67 73 72 70 69 69 80 84 85 85 82 78 82 80 71
Wind_Direction_850mb
226 227 235 235 233 232 230 229 231 235 237 221 232 219 233 220 225 223 226 229 226 227
226 229 234 236 236 231 228 229 233 231 225 229 226 234 218 221 224 222 226 226 225 228
227 229 233 235 234 231 228 229 228 226 238 233 228 224 217 219 220 220 223 225 225 225
229 231 234 235 235 230 228 228 226 225 230 231 228 221 216 220 222 218 222 223 222 217
230 231 234 233 233 229 227 227 227 231 229 228 225 223 216 219 220 221 220 218 214 211
229 231 234 232 234 227 226 225 225 227 230 233 230 223 217 221 223 219 217 216 214 209
232 234 234 235 236 229 226 226 228 231 235 234 231 228 220 220 220 218 214 210 205 203
234 233 232 234 234 231 230 231 233 232 231 230 228 223 217 218 217 216 213 208 206 199
243 238 237 237 236 232 231 231 233 232 231 230 225 220 216 218 217 215 213 206 204 197
247 242 240 239 239 237 236 236 236 235 233 230 226 222 219 217 218 214 211 219 208 199
248 245 243 241 241 242 238 238 239 239 235 230 228 227 217 212 211 218 218 224 217 204
249 248 245 242 239 239 240 240 238 239 238 234 229 224 212 209 214 216 218 217 210 208
249 250 247 246 243 240 241 244 243 241 239 238 231 218 209 212 213 213 214 218 211 218
249 249 247 245 244 240 240 241 241 240 239 235 225 218 213 212 216 220 214 218 218 224